Regional Weather Roundup
Issued by NWS

Home | Current Version | Previous Version | Graphics & Text | Print | Product List | Glossary On
Versions: 1 2 3 4 5 6 7 8 9 10 11 12 13 14 15 16 17 18 19 20 21 22 23 24 25 26 27 28 29 30 31 32 33 34 35 36 37 38 39 40 41 42 43 44 45 46 47 48 49 50
000
ASUS45 KTFX 281204
RWRMT
MONTANA HOURLY WEATHER ROUNDUP
NATIONAL WEATHER SERVICE GREAT FALLS MT
504 AM MST SAT FEB 28 2015

NOTE: "FAIR" INDICATES FEW OR NO CLOUDS BELOW 12000 FEET WITH NO
SIGNIFICANT WEATHER AND/OR OBSTRUCTIONS TO VISIBILITY.

* THESE STATIONS ARE NOT UNDER NWS QUALITY CONTROL. THEY DO NOT
   REPORT WEATHER SUCH AS PRECIPITATION OR FOG.

MTZ001>007-043-281300-
WEST OF THE DIVIDE
CITY           SKY/WX    TMP DP  RH WIND       PRES   REMARKS
KALISPELL      CLEAR     18   7  62 N7        30.09R WCI   9
MISSOULA       MOCLDY    21   5  50 E14       30.04R WCI   8
BUTTE          CLOUDY    10   5  80 CALM      29.92R
MULLAN PASS    PTCLDY     9   3  76 VRB7      29.82R WCI  -2
* ANACONDA     PTCLDY    12   3  67 N10        N/A   WCI  -1
* ESSEX        N/A        7   2  80 N/A        N/A
* LINCOLN      N/A       11   3  70 NE11G18    N/A   WCI  -3
* LOOKOUT PASS N/A       18   7  62 NW2G9      N/A
* POLSON       N/A       17   6  62 N2         N/A
* RONAN APT    PTCLDY    23   9  55 N/A        N/A
* SEELEY LAKE  N/A        4  -1  79 NE1        N/A
* THOMP F APT  PTCLDY    14   5  67 NW5G14     N/A   WCI   6
* YAAK HILL    N/A       23   6  48 N1         N/A
$$

MTZ008-052>055-281300-
SOUTHWEST MONTANA
CITY           SKY/WX    TMP DP  RH WIND       PRES   REMARKS
BOZEMAN        CLOUDY    14   9  80 W5        30.00R WCI   6
DILLON         CLOUDY    12   7  80 NE21      29.90R WCI  -7
* W YELLOWSTON PTCLDY    -3  -9  75 N/A        N/A
* THREE FORKS  PTCLDY    16   7  67 N/A        N/A
* BOULDER HILL N/A        7   2  80 N14        N/A   WCI -10
* MONIDA PASS  N/A        9   6  87 NW5        N/A
* RAYNOLDS PAS N/A        4 -40  10 VRB8       N/A   WCI  -9
* WHITEHALL    N/A       15   5  64 E5G12      N/A   WCI   7
* WISE RIVER   N/A       14   2  59 E10G18     N/A   WCI   1
$$

MTZ009>010-012-014-046-048-049-054-281300-
EAST SLOPES AND CENTRAL MONTANA
CITY           SKY/WX    TMP DP  RH WIND       PRES   REMARKS
CUT BANK       CLEAR      1   0  95 NW7       30.12R WCI -12
GREAT FALLS    CLOUDY    12   7  80 CALM      30.12R
HELENA         CLOUDY    16   9  74 NW5       30.08S WCI   8
* DEARBORN     N/A       14   9  80 N/A        N/A
* EAST GLACIER N/A        9   2  73 SE2        N/A
* MONARCH      N/A        6   1  80 W8         N/A   WCI  -7
* PENDROY      N/A       10   8  92 VRB11      N/A   WCI  -4
* ROGERS PASS  N/A        7   3  83 S4         N/A
* SWEET GRASS  N/A        5   2  87 NW11       N/A   WCI -10
$$

MTZ011-013-016-021-035-040-045-047-050-051-281300-
NORTH CENTRAL MONTANA
CITY           SKY/WX    TMP DP  RH WIND       PRES   REMARKS
HAVRE          CLOUDY     9   3  76 NW8       30.20R WCI  -3
LEWISTOWN      LGT SNOW  10   7  88 W7        30.07R WCI  -1
* N BAR RANCH  CLOUDY     9   3  76 NW15      30.03R WCI  -8
* CHESTER      N/A        5   0  80 NW1        N/A
* DENTON       N/A       10   6  84 W4         N/A
* GEYSER       N/A       11   8  88 W16        N/A   WCI  -6
* JUDITH GAP   N/A        8   7  96 NW11       N/A   WCI  -7
* LOMA         N/A       14   8  77 W5         N/A   WCI   6
$$

MTZ017>020-022>027-061-062-281300-
NORTHEAST MONTANA
CITY           SKY/WX    TMP DP  RH WIND       PRES   REMARKS
GLASGOW        CLOUDY    10   3  73 CALM      30.14R
GLENDIVE       CLEAR      3  -2  79 NW10      30.12R WCI -12
JORDAN         PTCLDY    12   7  80 NW8       30.13R
SIDNEY         CLEAR      7  -2  66 NW9       30.16R WCI  -6
WOLF POINT     CLOUDY     7   1  76 W8        30.17R WCI  -6
* BEAVER HILL  N/A        4   0  83 W11        N/A   WCI -12
* CIRCLE       N/A       10   5  80 W3         N/A
* LINDSAY DVD  N/A        2  -1  87 NW13       N/A   WCI -16
* NAVAJO       N/A        4  -1  79 NW11       N/A   WCI -12
* SACO         N/A       14   7  73 W11G16     N/A   WCI   1
$$

MTZ028>042-056>058-281300-
SOUTHCENTRAL AND SOUTHEAST MONTANA
CITY           SKY/WX    TMP DP  RH WIND       PRES   REMARKS
BAKER          CLOUDY     9   5  84 NW14      30.06R WCI  -7
BILLINGS       LGT SNOW  16   9  74 N3        30.09R
LIVINGSTON     CLOUDY    16   9  74 N3        29.99R
MILES CITY     MOCLDY     7   1  76 NW7       30.14R WCI  -5
* LAUREL APT   CLEAR     16   7  67 N/A        N/A
* ROUNDUP APT  PTCLDY    14   3  61 N/A        N/A
* ALZADA       N/A        4   0  83 W3         N/A
* HYSHAM       N/A       11   7  84 N/A        N/A
* LAME DEER    N/A        9   5  84 W7         N/A   WCI  -2
* REED POINT   N/A       14   9  80 E5         N/A   WCI   6
$$

REGIONAL REPORTS...DAKOTAS
CITY           SKY/WX    TMP DP  RH WIND       PRES   REMARKS
WILLISTON      CLOUDY     3  -4  72 N9        30.12R WCI -11
DICKINSON      MOCLDY     9   3  76 W10       29.99R WCI  -5
BEACH          CLOUDY     5   3  91 W10       30.06R WCI -10
CROSBY         MOCLDY    -4  -8  83 NW10      30.12R WCI -21
WATFORD CITY   CLOUDY     7   1  76 NW9       30.07R WCI  -6
BISMARCK       CLEAR      7   1  76 E3        30.08R
GRAND FORKS    MOCLDY     3  -2  79 S15       30.22F WCI -16
FARGO          CLEAR      7  -2  66 S14       30.27F WCI -10
BUFFALO SD     CLEAR      7   1  76 NW14      29.96R WCI -10
RAPID CITY     PTCLDY    16   9  74 N21       30.02R WCI  -1
$$

REGIONAL REPORTS...WYOMING/IDAHO/WASHINGTON
CITY           SKY/WX    TMP DP  RH WIND       PRES   REMARKS
GILLETTE       CLOUDY     9   5  84 NW7       30.02R WCI  -2
SHERIDAN       CLOUDY    16   7  67 W8        30.06R WCI   5
CODY           PTCLDY     9   5  84 CALM      29.96R
YELLOWSTONE LA PTCLDY   -11 -18  70 W3        29.78R
SALMON         MOCLDY    28  14  56 E9G16     29.84S WCI  19
MULLAN PASS    PTCLDY     9   3  76 VRB7      29.82S WCI  -2
SAND POINT     CLEAR     30   7  38 NE17G28   30.06R WCI  18
SPOKANE        FAIR      28   9  45 NE15      29.99R WCI  16
$$

REGIONAL REPORTS...SASKATCHEWAN
CITY           SKY/WX    TMP DP  RH WIND       PRES   REMARKS
SWIFT CURRENT  LGT SNOW   5   1  83 W14       30.10S WCI -12

$$



USA.gov is the U.S. government's official web portal to all federal, state and local government web resources and services.